Year,Month,Day,Hour,Minute,Value (Times are PST for temperature in C)
2010,10,11,00,00,8.40
2010,10,11,00,01,8.40
2010,10,11,00,02,8.40
2010,10,11,00,03,8.40
2010,10,11,00,04,8.40
2010,10,11,00,05,8.40
2010,10,11,00,06,8.40
2010,10,11,00,07,8.40
2010,10,11,00,08,8.40
2010,10,11,00,09,8.30
2010,10,11,00,10,8.20
2010,10,11,00,11,8.20
2010,10,11,00,12,8.20
2010,10,11,00,13,8.20
2010,10,11,00,14,8.30
2010,10,11,00,15,8.40
2010,10,11,00,16,8.40
2010,10,11,00,17,8.50
2010,10,11,00,18,8.50
2010,10,11,00,19,8.60
2010,10,11,00,20,8.60
2010,10,11,00,21,8.70
2010,10,11,00,22,8.80
2010,10,11,00,23,8.80
2010,10,11,00,24,8.80
2010,10,11,00,25,8.90
2010,10,11,00,26,8.90
2010,10,11,00,27,9.00
2010,10,11,00,28,9.10
2010,10,11,00,29,9.20
2010,10,11,00,30,9.20
2010,10,11,00,31,9.30
2010,10,11,00,32,9.30
2010,10,11,00,33,9.40
2010,10,11,00,34,9.40
2010,10,11,00,35,9.50
2010,10,11,00,36,9.50
2010,10,11,00,37,9.50
2010,10,11,00,38,9.50
2010,10,11,00,39,9.60
2010,10,11,00,40,9.60
2010,10,11,00,41,9.70
2010,10,11,00,42,9.70
2010,10,11,00,43,9.70
2010,10,11,00,44,9.70
2010,10,11,00,45,9.80
2010,10,11,00,46,9.80
2010,10,11,00,47,9.80
2010,10,11,00,48,9.80
2010,10,11,00,49,9.80
2010,10,11,00,50,9.80
2010,10,11,00,51,9.80
2010,10,11,00,52,9.80
2010,10,11,00,53,9.80
2010,10,11,00,54,9.70
2010,10,11,00,55,9.70
2010,10,11,00,56,9.70
2010,10,11,00,57,9.70
2010,10,11,00,58,9.70
2010,10,11,00,59,9.70
2010,10,11,01,00,9.60
2010,10,11,01,01,9.60
2010,10,11,01,02,9.50
2010,10,11,01,03,9.50
2010,10,11,01,04,9.40
2010,10,11,01,05,9.40
2010,10,11,01,06,9.40
2010,10,11,01,07,9.40
2010,10,11,01,08,9.40
2010,10,11,01,09,9.30
2010,10,11,01,10,9.30
2010,10,11,01,11,9.30
2010,10,11,01,12,9.20
2010,10,11,01,13,9.20
2010,10,11,01,14,9.10
2010,10,11,01,15,9.00
2010,10,11,01,16,9.00
2010,10,11,01,17,8.90
2010,10,11,01,18,8.90
2010,10,11,01,19,8.80
2010,10,11,01,20,8.80
2010,10,11,01,21,8.80
2010,10,11,01,22,8.70
2010,10,11,01,23,8.70
2010,10,11,01,24,8.70
2010,10,11,01,25,8.70
2010,10,11,01,26,8.70
2010,10,11,01,27,8.70
2010,10,11,01,28,8.70
2010,10,11,01,29,8.60
2010,10,11,01,30,8.60
2010,10,11,01,31,8.60
2010,10,11,01,32,8.60
2010,10,11,01,33,8.70
2010,10,11,01,34,8.70
2010,10,11,01,35,8.70
2010,10,11,01,36,8.70
2010,10,11,01,37,8.80
2010,10,11,01,38,8.70
2010,10,11,01,39,8.70
2010,10,11,01,40,8.80
2010,10,11,01,41,8.80
2010,10,11,01,42,8.90
2010,10,11,01,43,8.90
2010,10,11,01,44,8.90
2010,10,11,01,45,8.90
2010,10,11,01,46,8.90
2010,10,11,01,47,8.90
2010,10,11,01,48,8.90
2010,10,11,01,49,8.90
2010,10,11,01,50,8.90
2010,10,11,01,51,8.90
2010,10,11,01,52,8.90
2010,10,11,01,53,8.90
2010,10,11,01,54,8.90
2010,10,11,01,55,8.90
2010,10,11,01,56,8.90
2010,10,11,01,57,8.90
2010,10,11,01,58,8.80
2010,10,11,01,59,8.80
2010,10,11,02,00,8.80
2010,10,11,02,01,8.70
2010,10,11,02,02,8.70
2010,10,11,02,03,8.70
2010,10,11,02,04,8.70
2010,10,11,02,05,8.70
2010,10,11,02,06,8.70
2010,10,11,02,07,8.70
2010,10,11,02,08,8.60
2010,10,11,02,09,8.50
2010,10,11,02,10,8.40
2010,10,11,02,11,8.40
2010,10,11,02,12,8.40
2010,10,11,02,13,8.40
2010,10,11,02,14,8.30
2010,10,11,02,15,8.20
2010,10,11,02,16,8.10
2010,10,11,02,17,7.90
2010,10,11,02,18,7.80
2010,10,11,02,19,7.70
2010,10,11,02,20,7.60
2010,10,11,02,21,7.60
2010,10,11,02,22,7.50
2010,10,11,02,23,7.40
2010,10,11,02,24,7.30
2010,10,11,02,25,7.20
2010,10,11,02,26,7.10
2010,10,11,02,27,7.00
2010,10,11,02,28,7.00
2010,10,11,02,29,6.90
2010,10,11,02,30,6.90
2010,10,11,02,31,6.90
2010,10,11,02,32,6.90
2010,10,11,02,33,6.90
2010,10,11,02,34,6.90
2010,10,11,02,35,6.90
2010,10,11,02,36,6.90
2010,10,11,02,37,7.00
2010,10,11,02,38,7.00
2010,10,11,02,39,6.90
2010,10,11,02,40,6.90
2010,10,11,02,41,6.90
2010,10,11,02,42,7.00
2010,10,11,02,43,7.10
2010,10,11,02,44,7.20
2010,10,11,02,45,7.20
2010,10,11,02,46,7.20
2010,10,11,02,47,7.20
2010,10,11,02,48,7.00
2010,10,11,02,49,6.90
2010,10,11,02,50,6.90
2010,10,11,02,51,6.90
2010,10,11,02,52,6.90
2010,10,11,02,53,7.00
2010,10,11,02,54,7.10
2010,10,11,02,55,7.20
2010,10,11,02,56,7.10
2010,10,11,02,57,7.20
2010,10,11,02,58,7.20
2010,10,11,02,59,7.20
2010,10,11,03,00,7.20
2010,10,11,03,01,7.20
2010,10,11,03,02,7.10
2010,10,11,03,03,7.20
2010,10,11,03,04,7.20
2010,10,11,03,05,7.30
2010,10,11,03,06,7.30
2010,10,11,03,07,7.30
2010,10,11,03,08,7.30
2010,10,11,03,09,7.40
2010,10,11,03,10,7.40
2010,10,11,03,11,7.40
2010,10,11,03,12,7.40
2010,10,11,03,13,7.40
2010,10,11,03,14,7.40
2010,10,11,03,15,7.40
2010,10,11,03,16,7.50
2010,10,11,03,17,7.50
2010,10,11,03,18,7.50
2010,10,11,03,19,7.50
2010,10,11,03,20,7.50
2010,10,11,03,21,7.50
2010,10,11,03,22,7.40
2010,10,11,03,23,7.40
2010,10,11,03,24,7.40
2010,10,11,03,25,7.40
2010,10,11,03,26,7.40
2010,10,11,03,27,7.30
2010,10,11,03,28,7.20
2010,10,11,03,29,7.20
2010,10,11,03,30,7.10
2010,10,11,03,31,7.10
2010,10,11,03,32,7.00
2010,10,11,03,33,7.00
2010,10,11,03,34,7.00
2010,10,11,03,35,6.90
2010,10,11,03,36,6.90
2010,10,11,03,37,6.80
2010,10,11,03,38,6.80
2010,10,11,03,39,6.70
2010,10,11,03,40,6.70
2010,10,11,03,41,6.70
2010,10,11,03,42,6.70
2010,10,11,03,43,6.70
2010,10,11,03,44,6.60
2010,10,11,03,45,6.60
2010,10,11,03,46,6.50
2010,10,11,03,47,6.50
2010,10,11,03,48,6.40
2010,10,11,03,49,6.40
2010,10,11,03,50,6.40
2010,10,11,03,51,6.30
2010,10,11,03,52,6.30
2010,10,11,03,53,6.30
2010,10,11,03,54,6.30
2010,10,11,03,55,6.20
2010,10,11,03,56,6.20
2010,10,11,03,57,6.20
2010,10,11,03,58,6.20
2010,10,11,03,59,6.20
2010,10,11,04,00,6.20
2010,10,11,04,01,6.10
2010,10,11,04,02,6.10
2010,10,11,04,03,6.00
2010,10,11,04,04,6.00
2010,10,11,04,05,5.90
2010,10,11,04,06,5.80
2010,10,11,04,07,5.80
2010,10,11,04,08,5.80
2010,10,11,04,09,5.70
2010,10,11,04,10,5.70
2010,10,11,04,11,5.60
2010,10,11,04,12,5.60
2010,10,11,04,13,5.60
2010,10,11,04,14,5.60
2010,10,11,04,15,5.60
2010,10,11,04,16,5.60
2010,10,11,04,17,5.60
2010,10,11,04,18,5.60
2010,10,11,04,19,5.60
2010,10,11,04,20,5.60
2010,10,11,04,21,5.50
2010,10,11,04,22,5.50
2010,10,11,04,23,5.40
2010,10,11,04,24,5.40
2010,10,11,04,25,5.40
2010,10,11,04,26,5.40
2010,10,11,04,27,5.30
2010,10,11,04,28,5.30
2010,10,11,04,29,5.30
2010,10,11,04,30,5.30
2010,10,11,04,31,5.30
2010,10,11,04,32,5.40
2010,10,11,04,33,5.60
2010,10,11,04,34,5.80
2010,10,11,04,35,5.80
2010,10,11,04,36,5.70
2010,10,11,04,37,5.60
2010,10,11,04,38,5.60
2010,10,11,04,39,5.40
2010,10,11,04,40,5.40
2010,10,11,04,41,5.30
2010,10,11,04,42,5.30
2010,10,11,04,43,5.20
2010,10,11,04,44,5.20
2010,10,11,04,45,5.10
2010,10,11,04,46,5.10
2010,10,11,04,47,5.10
2010,10,11,04,48,5.10
2010,10,11,04,49,5.10
2010,10,11,04,50,5.10
2010,10,11,04,51,5.10
2010,10,11,04,52,5.10
2010,10,11,04,53,5.10
2010,10,11,04,54,5.00
2010,10,11,04,55,5.00
2010,10,11,04,56,5.00
2010,10,11,04,57,5.00
2010,10,11,04,58,5.00
2010,10,11,04,59,4.90
2010,10,11,05,00,4.90
2010,10,11,05,01,4.90
2010,10,11,05,02,4.90
2010,10,11,05,03,4.80
2010,10,11,05,04,4.80
2010,10,11,05,05,4.80
2010,10,11,05,06,4.80
2010,10,11,05,07,4.80
2010,10,11,05,08,4.80
2010,10,11,05,09,4.80
2010,10,11,05,10,4.80
2010,10,11,05,11,4.70
2010,10,11,05,12,4.70
2010,10,11,05,13,4.70
2010,10,11,05,14,4.70
2010,10,11,05,15,4.60
2010,10,11,05,16,4.60
2010,10,11,05,17,4.50
2010,10,11,05,18,4.50
2010,10,11,05,19,4.50
2010,10,11,05,20,4.50
2010,10,11,05,21,4.50
2010,10,11,05,22,4.50
2010,10,11,05,23,4.50
2010,10,11,05,24,4.50
2010,10,11,05,25,4.60
2010,10,11,05,26,4.60
2010,10,11,05,27,4.50
2010,10,11,05,28,4.50
2010,10,11,05,29,4.50
2010,10,11,05,30,4.40
2010,10,11,05,31,4.40
2010,10,11,05,32,4.40
2010,10,11,05,33,4.40
2010,10,11,05,34,4.40
2010,10,11,05,35,4.30
2010,10,11,05,36,4.30
2010,10,11,05,37,4.30
2010,10,11,05,38,4.30
2010,10,11,05,39,4.30
2010,10,11,05,40,4.20
2010,10,11,05,41,4.20
2010,10,11,05,42,4.30
2010,10,11,05,43,4.30
2010,10,11,05,44,4.30
2010,10,11,05,45,4.20
2010,10,11,05,46,4.20
2010,10,11,05,47,4.20
2010,10,11,05,48,4.20
2010,10,11,05,49,4.20
2010,10,11,05,50,4.20
2010,10,11,05,51,4.20
2010,10,11,05,52,4.20
2010,10,11,05,53,4.20
2010,10,11,05,54,4.20
2010,10,11,05,55,4.10
2010,10,11,05,56,4.10
2010,10,11,05,57,4.10
2010,10,11,05,58,4.10
2010,10,11,05,59,4.10
2010,10,11,06,00,4.10
2010,10,11,06,01,4.10
2010,10,11,06,02,4.10
2010,10,11,06,03,4.10
2010,10,11,06,04,4.10
2010,10,11,06,05,4.10
2010,10,11,06,06,4.00
2010,10,11,06,07,4.00
2010,10,11,06,08,4.00
2010,10,11,06,09,4.10
2010,10,11,06,10,4.10
2010,10,11,06,11,4.20
2010,10,11,06,12,4.20
2010,10,11,06,13,4.20
2010,10,11,06,14,4.20
2010,10,11,06,15,4.30
2010,10,11,06,16,4.30
2010,10,11,06,17,4.30
2010,10,11,06,18,4.30
2010,10,11,06,19,4.30
2010,10,11,06,20,4.30
2010,10,11,06,21,4.30
2010,10,11,06,22,4.20
2010,10,11,06,23,4.20
2010,10,11,06,24,4.10
2010,10,11,06,25,4.10
2010,10,11,06,26,4.00
2010,10,11,06,27,4.00
2010,10,11,06,28,4.00
2010,10,11,06,29,3.90
2010,10,11,06,30,3.90
2010,10,11,06,31,3.90
2010,10,11,06,32,3.90
2010,10,11,06,33,4.00
2010,10,11,06,34,4.10
2010,10,11,06,35,4.20
2010,10,11,06,36,4.30
2010,10,11,06,37,4.30
2010,10,11,06,38,4.40
2010,10,11,06,39,4.30
2010,10,11,06,40,4.30
2010,10,11,06,41,4.20
2010,10,11,06,42,4.20
2010,10,11,06,43,4.10
2010,10,11,06,44,4.10
2010,10,11,06,45,4.20
2010,10,11,06,46,4.20
2010,10,11,06,47,4.20
2010,10,11,06,48,4.20
2010,10,11,06,49,4.30
2010,10,11,06,50,4.30
2010,10,11,06,51,4.30
2010,10,11,06,52,4.30
2010,10,11,06,53,4.20
2010,10,11,06,54,4.30
2010,10,11,06,55,4.30
2010,10,11,06,56,4.30
2010,10,11,06,57,4.30
2010,10,11,06,58,4.30
2010,10,11,06,59,4.40
2010,10,11,07,00,4.40
2010,10,11,07,01,4.40
2010,10,11,07,02,4.40
2010,10,11,07,03,4.40
2010,10,11,07,04,4.40
2010,10,11,07,05,4.50
2010,10,11,07,06,4.50
2010,10,11,07,07,4.50
2010,10,11,07,08,4.50
2010,10,11,07,09,4.40
2010,10,11,07,10,4.40
2010,10,11,07,11,4.40
2010,10,11,07,12,4.50
2010,10,11,07,13,4.60
2010,10,11,07,14,4.70
2010,10,11,07,15,4.80
2010,10,11,07,16,4.90
2010,10,11,07,17,5.10
2010,10,11,07,18,5.20
2010,10,11,07,19,5.30
2010,10,11,07,20,5.30
2010,10,11,07,21,5.20
2010,10,11,07,22,5.20
2010,10,11,07,23,5.20
2010,10,11,07,24,5.20
2010,10,11,07,25,5.30
2010,10,11,07,26,5.40
2010,10,11,07,27,5.40
2010,10,11,07,28,5.40
2010,10,11,07,29,5.40
2010,10,11,07,30,5.50
2010,10,11,07,31,5.50
2010,10,11,07,32,5.50
2010,10,11,07,33,5.50
2010,10,11,07,34,5.50
2010,10,11,07,35,5.60
2010,10,11,07,36,5.50
2010,10,11,07,37,5.50
2010,10,11,07,38,5.60
2010,10,11,07,39,5.70
2010,10,11,07,40,5.70
2010,10,11,07,41,5.60
2010,10,11,07,42,5.60
2010,10,11,07,43,5.50
2010,10,11,07,44,5.50
2010,10,11,07,45,5.40
2010,10,11,07,46,5.40
2010,10,11,07,47,5.40
2010,10,11,07,48,5.40
2010,10,11,07,49,5.40
2010,10,11,07,50,5.40
2010,10,11,07,51,5.40
2010,10,11,07,52,5.40
2010,10,11,07,53,5.40
2010,10,11,07,54,5.50
2010,10,11,07,55,5.50
2010,10,11,07,56,5.60
2010,10,11,07,57,5.70
2010,10,11,07,58,5.70
2010,10,11,07,59,5.70
2010,10,11,08,00,5.70
2010,10,11,08,01,5.70
2010,10,11,08,02,5.80
2010,10,11,08,03,5.90
2010,10,11,08,04,5.90
2010,10,11,08,05,6.00
2010,10,11,08,06,6.10
2010,10,11,08,07,6.10
2010,10,11,08,08,6.10
2010,10,11,08,09,6.10
2010,10,11,08,10,6.20
2010,10,11,08,11,6.20
2010,10,11,08,12,6.30
2010,10,11,08,13,6.30
2010,10,11,08,14,6.30
2010,10,11,08,15,6.30
2010,10,11,08,16,6.40
2010,10,11,08,17,6.50
2010,10,11,08,18,6.50
2010,10,11,08,19,6.60
2010,10,11,08,20,6.60
2010,10,11,08,21,6.60
2010,10,11,08,22,6.70
2010,10,11,08,23,6.70
2010,10,11,08,24,6.70
2010,10,11,08,25,6.80
2010,10,11,08,26,6.80
2010,10,11,08,27,6.80
2010,10,11,08,28,6.90
2010,10,11,08,29,7.00
2010,10,11,08,30,7.00
2010,10,11,08,31,7.10
2010,10,11,08,32,7.20
2010,10,11,08,33,7.30
2010,10,11,08,34,7.50
2010,10,11,08,35,7.60
2010,10,11,08,36,7.70
2010,10,11,08,37,7.80
2010,10,11,08,38,7.90
2010,10,11,08,39,7.90
2010,10,11,08,40,8.00
2010,10,11,08,41,8.00
2010,10,11,08,42,8.10
2010,10,11,08,43,8.10
2010,10,11,08,44,8.20
2010,10,11,08,45,8.20
2010,10,11,08,46,8.20
2010,10,11,08,47,8.20
2010,10,11,08,48,8.20
2010,10,11,08,49,8.10
2010,10,11,08,50,8.00
2010,10,11,08,51,8.00
2010,10,11,08,52,7.90
2010,10,11,08,53,8.00
2010,10,11,08,54,8.00
2010,10,11,08,55,8.00
2010,10,11,08,56,8.00
2010,10,11,08,57,8.00
2010,10,11,08,58,8.00
2010,10,11,08,59,8.00
2010,10,11,09,00,8.00
2010,10,11,09,01,8.00
2010,10,11,09,02,8.00
2010,10,11,09,03,8.00
2010,10,11,09,04,8.00
2010,10,11,09,05,8.00
2010,10,11,09,06,8.00
2010,10,11,09,07,8.00
2010,10,11,09,08,8.00
2010,10,11,09,09,8.00
2010,10,11,09,10,8.00
2010,10,11,09,11,8.10
2010,10,11,09,12,8.10
2010,10,11,09,13,8.10
2010,10,11,09,14,8.10
2010,10,11,09,15,8.20
2010,10,11,09,16,8.20
2010,10,11,09,17,8.20
2010,10,11,09,18,8.30
2010,10,11,09,19,8.30
2010,10,11,09,20,8.30
2010,10,11,09,21,8.40
2010,10,11,09,22,8.40
2010,10,11,09,23,8.40
2010,10,11,09,24,8.50
2010,10,11,09,25,8.50
2010,10,11,09,26,8.50
2010,10,11,09,27,8.50
2010,10,11,09,28,8.60
2010,10,11,09,29,8.60
2010,10,11,09,30,8.60
2010,10,11,09,31,8.70
2010,10,11,09,32,8.70
2010,10,11,09,33,8.70
2010,10,11,09,34,8.80
2010,10,11,09,35,8.80
2010,10,11,09,36,8.80
2010,10,11,09,37,8.80
2010,10,11,09,38,8.80
2010,10,11,09,39,8.90
2010,10,11,09,40,8.90
2010,10,11,09,41,9.00
2010,10,11,09,42,9.00
2010,10,11,09,43,9.10
2010,10,11,09,44,9.20
2010,10,11,09,45,9.20
2010,10,11,09,46,9.30
2010,10,11,09,47,9.30
2010,10,11,09,48,9.30
2010,10,11,09,49,9.40
2010,10,11,09,50,9.50
2010,10,11,09,51,9.50
2010,10,11,09,52,9.60
2010,10,11,09,53,9.60
2010,10,11,09,54,9.60
2010,10,11,09,55,9.60
2010,10,11,09,56,9.70
2010,10,11,09,57,9.70
2010,10,11,09,58,9.70
2010,10,11,09,59,9.70
2010,10,11,10,00,9.70
2010,10,11,10,01,9.70
2010,10,11,10,02,9.80
2010,10,11,10,03,9.80
2010,10,11,10,04,9.90
2010,10,11,10,05,9.90
2010,10,11,10,06,10.00
2010,10,11,10,07,10.10
2010,10,11,10,08,10.10
2010,10,11,10,09,10.20
2010,10,11,10,10,10.30
2010,10,11,10,11,10.30
2010,10,11,10,12,10.40
2010,10,11,10,13,10.50
2010,10,11,10,14,10.60
2010,10,11,10,15,10.60
2010,10,11,10,16,10.70
2010,10,11,10,17,10.70
2010,10,11,10,18,10.70
2010,10,11,10,19,10.80
2010,10,11,10,20,10.80
2010,10,11,10,21,10.80
2010,10,11,10,22,10.90
2010,10,11,10,23,10.90
2010,10,11,10,24,11.00
2010,10,11,10,25,11.00
2010,10,11,10,26,11.10
2010,10,11,10,27,11.10
2010,10,11,10,28,11.20
2010,10,11,10,29,11.20
2010,10,11,10,30,11.20
2010,10,11,10,31,11.20
2010,10,11,10,32,11.20
2010,10,11,10,33,11.20
2010,10,11,10,34,11.30
2010,10,11,10,35,11.30
2010,10,11,10,36,11.30
2010,10,11,10,37,11.30
2010,10,11,10,38,11.30
2010,10,11,10,39,11.30
2010,10,11,10,40,11.20
2010,10,11,10,41,11.20
2010,10,11,10,42,11.20
2010,10,11,10,43,11.20
2010,10,11,10,44,11.20
2010,10,11,10,45,11.20
2010,10,11,10,46,11.20
2010,10,11,10,47,11.20
2010,10,11,10,48,11.20
2010,10,11,10,49,11.20
2010,10,11,10,50,11.20
2010,10,11,10,51,11.20
2010,10,11,10,52,11.20
2010,10,11,10,53,11.20
2010,10,11,10,54,11.30
2010,10,11,10,55,11.30
2010,10,11,10,56,11.30
2010,10,11,10,57,11.30
2010,10,11,10,58,11.30
2010,10,11,10,59,11.30
2010,10,11,11,00,11.20
2010,10,11,11,01,11.20
2010,10,11,11,02,11.20
2010,10,11,11,03,11.20
2010,10,11,11,04,11.20
2010,10,11,11,05,11.20
2010,10,11,11,06,11.20
2010,10,11,11,07,11.20
2010,10,11,11,08,11.20
2010,10,11,11,09,11.20
2010,10,11,11,10,11.20
2010,10,11,11,11,11.20
2010,10,11,11,12,11.20
2010,10,11,11,13,11.20
2010,10,11,11,14,11.20
2010,10,11,11,15,11.20
2010,10,11,11,16,11.20
2010,10,11,11,17,11.20
2010,10,11,11,18,11.20
2010,10,11,11,19,11.10
2010,10,11,11,20,11.10
2010,10,11,11,21,11.20
2010,10,11,11,22,11.20
2010,10,11,11,23,11.20
2010,10,11,11,24,11.20
2010,10,11,11,25,11.20
2010,10,11,11,26,11.20
2010,10,11,11,27,11.20
2010,10,11,11,28,11.20
2010,10,11,11,29,11.20
2010,10,11,11,30,11.20
2010,10,11,11,31,11.20
2010,10,11,11,32,11.20
2010,10,11,11,33,11.20
2010,10,11,11,34,11.20
2010,10,11,11,35,11.20
2010,10,11,11,36,11.20
2010,10,11,11,37,11.20
2010,10,11,11,38,11.20
2010,10,11,11,39,11.30
2010,10,11,11,40,11.30
2010,10,11,11,41,11.30
2010,10,11,11,42,11.30
2010,10,11,11,43,11.30
2010,10,11,11,44,11.30
2010,10,11,11,45,11.40
2010,10,11,11,46,11.40
2010,10,11,11,47,11.40
2010,10,11,11,48,11.40
2010,10,11,11,49,11.50
2010,10,11,11,50,11.50
2010,10,11,11,51,11.50
2010,10,11,11,52,11.60
2010,10,11,11,53,11.60
2010,10,11,11,54,11.60
2010,10,11,11,55,11.60
2010,10,11,11,56,11.60
2010,10,11,11,57,11.60
2010,10,11,11,58,11.60
2010,10,11,11,59,11.60
2010,10,11,12,00,11.60
2010,10,11,12,01,11.60
2010,10,11,12,02,11.60
2010,10,11,12,03,11.60
2010,10,11,12,04,11.60
2010,10,11,12,05,11.60
2010,10,11,12,06,11.60
2010,10,11,12,07,11.60
2010,10,11,12,08,11.60
2010,10,11,12,09,11.60
2010,10,11,12,10,11.60
2010,10,11,12,11,11.60
2010,10,11,12,12,11.70
2010,10,11,12,13,11.70
2010,10,11,12,14,11.70
2010,10,11,12,15,11.70
2010,10,11,12,16,11.70
2010,10,11,12,17,11.70
2010,10,11,12,18,11.70
2010,10,11,12,19,11.80
2010,10,11,12,20,11.80
2010,10,11,12,21,11.80
2010,10,11,12,22,11.80
2010,10,11,12,23,11.80
2010,10,11,12,24,11.80
2010,10,11,12,25,11.80
2010,10,11,12,26,11.80
2010,10,11,12,27,11.80
2010,10,11,12,28,11.80
2010,10,11,12,29,11.80
2010,10,11,12,30,11.80
2010,10,11,12,31,11.80
2010,10,11,12,32,11.80
2010,10,11,12,33,11.80
2010,10,11,12,34,11.80
2010,10,11,12,35,11.80
2010,10,11,12,36,11.80
2010,10,11,12,37,11.80
2010,10,11,12,38,11.80
2010,10,11,12,39,11.80
2010,10,11,12,40,11.80
2010,10,11,12,41,11.80
2010,10,11,12,42,11.90
2010,10,11,12,43,11.80
2010,10,11,12,44,11.80
2010,10,11,12,45,11.80
2010,10,11,12,46,11.80
2010,10,11,12,47,11.90
2010,10,11,12,48,11.90
2010,10,11,12,49,11.90
2010,10,11,12,50,11.90
2010,10,11,12,51,11.90
2010,10,11,12,52,11.90
2010,10,11,12,53,12.00
2010,10,11,12,54,12.00
2010,10,11,12,55,12.10
2010,10,11,12,56,12.10
2010,10,11,12,57,12.00
2010,10,11,12,58,12.00
2010,10,11,12,59,12.10
2010,10,11,13,00,12.10
2010,10,11,13,01,12.10
2010,10,11,13,02,12.10
2010,10,11,13,03,12.10
2010,10,11,13,04,12.10
2010,10,11,13,05,12.10
2010,10,11,13,06,12.10
2010,10,11,13,07,12.10
2010,10,11,13,08,12.10
2010,10,11,13,09,12.10
2010,10,11,13,10,12.10
2010,10,11,13,11,12.10
2010,10,11,13,12,12.10
2010,10,11,13,13,12.10
2010,10,11,13,14,12.10
2010,10,11,13,15,12.10
2010,10,11,13,16,12.10
2010,10,11,13,17,12.10
2010,10,11,13,18,12.10
2010,10,11,13,19,12.20
2010,10,11,13,20,12.20
2010,10,11,13,21,12.20
2010,10,11,13,22,12.20
2010,10,11,13,23,12.20
2010,10,11,13,24,12.20
2010,10,11,13,25,12.20
2010,10,11,13,26,12.20
2010,10,11,13,27,12.20
2010,10,11,13,28,12.20
2010,10,11,13,29,12.20
2010,10,11,13,30,12.20
2010,10,11,13,31,12.30
2010,10,11,13,32,12.30
2010,10,11,13,33,12.30
2010,10,11,13,34,12.30
2010,10,11,13,35,12.30
2010,10,11,13,36,12.40
2010,10,11,13,37,12.40
2010,10,11,13,38,12.40
2010,10,11,13,39,12.40
2010,10,11,13,40,12.40
2010,10,11,13,41,12.40
2010,10,11,13,42,12.40
2010,10,11,13,43,12.40
2010,10,11,13,44,12.40
2010,10,11,13,45,12.40
2010,10,11,13,46,12.40
2010,10,11,13,47,12.40
2010,10,11,13,48,12.40
2010,10,11,13,49,12.40
2010,10,11,13,50,12.40
2010,10,11,13,51,12.50
2010,10,11,13,52,12.50
2010,10,11,13,53,12.50
2010,10,11,13,54,12.50
2010,10,11,13,55,12.50
2010,10,11,13,56,12.60
2010,10,11,13,57,12.60
2010,10,11,13,58,12.60
2010,10,11,13,59,12.60
2010,10,11,14,00,12.50
2010,10,11,14,01,12.50
2010,10,11,14,02,12.50
2010,10,11,14,03,12.50
2010,10,11,14,04,12.50
2010,10,11,14,05,12.50
2010,10,11,14,06,12.40
2010,10,11,14,07,12.40
2010,10,11,14,08,12.40
2010,10,11,14,09,12.40
2010,10,11,14,10,12.40
2010,10,11,14,11,12.40
2010,10,11,14,12,12.40
2010,10,11,14,13,12.40
2010,10,11,14,14,12.40
2010,10,11,14,15,12.40
2010,10,11,14,16,12.40
2010,10,11,14,17,12.40
2010,10,11,14,18,12.40
2010,10,11,14,19,12.40
2010,10,11,14,20,12.40
2010,10,11,14,21,12.40
2010,10,11,14,22,12.40
2010,10,11,14,23,12.40
2010,10,11,14,24,12.30
2010,10,11,14,25,12.30
2010,10,11,14,26,12.30
2010,10,11,14,27,12.30
2010,10,11,14,28,12.30
2010,10,11,14,29,12.20
2010,10,11,14,30,12.20
2010,10,11,14,31,12.20
2010,10,11,14,32,12.20
2010,10,11,14,33,12.20
2010,10,11,14,34,12.20
2010,10,11,14,35,12.20
2010,10,11,14,36,12.10
2010,10,11,14,37,12.10
2010,10,11,14,38,12.10
2010,10,11,14,39,12.10
2010,10,11,14,40,12.10
2010,10,11,14,41,12.00
2010,10,11,14,42,12.00
2010,10,11,14,43,12.00
2010,10,11,14,44,12.00
2010,10,11,14,45,12.00
2010,10,11,14,46,12.00
2010,10,11,14,47,12.00
2010,10,11,14,48,12.00
2010,10,11,14,49,12.00
2010,10,11,14,50,12.00
2010,10,11,14,51,12.00
2010,10,11,14,52,11.90
2010,10,11,14,53,11.90
2010,10,11,14,54,11.90
2010,10,11,14,55,11.90
2010,10,11,14,56,11.90
2010,10,11,14,57,11.90
2010,10,11,14,58,11.90
2010,10,11,14,59,11.90
2010,10,11,15,00,11.90
2010,10,11,15,01,11.90
2010,10,11,15,02,11.90
2010,10,11,15,03,11.80
2010,10,11,15,04,11.80
2010,10,11,15,05,11.80
2010,10,11,15,06,11.80
2010,10,11,15,07,11.80
2010,10,11,15,08,11.80
2010,10,11,15,09,11.80
2010,10,11,15,10,11.80
2010,10,11,15,11,11.80
2010,10,11,15,12,11.70
2010,10,11,15,13,11.70
2010,10,11,15,14,11.80
2010,10,11,15,15,11.80
2010,10,11,15,16,11.80
2010,10,11,15,17,11.80
2010,10,11,15,18,11.80
2010,10,11,15,19,11.80
2010,10,11,15,20,11.80
2010,10,11,15,21,11.80
2010,10,11,15,22,11.80
2010,10,11,15,23,11.80
2010,10,11,15,24,11.80
2010,10,11,15,25,11.80
2010,10,11,15,26,11.80
2010,10,11,15,27,11.80
2010,10,11,15,28,11.80
2010,10,11,15,29,11.80
2010,10,11,15,30,11.80
2010,10,11,15,31,11.80
2010,10,11,15,32,11.90
2010,10,11,15,33,11.90
2010,10,11,15,34,11.90
2010,10,11,15,35,11.90
2010,10,11,15,36,11.90
2010,10,11,15,37,11.90
2010,10,11,15,38,11.90
2010,10,11,15,39,11.90
2010,10,11,15,40,11.90
2010,10,11,15,41,11.90
2010,10,11,15,42,11.90
2010,10,11,15,43,11.90
2010,10,11,15,44,11.90
2010,10,11,15,45,12.00
2010,10,11,15,46,12.00
2010,10,11,15,47,12.00
2010,10,11,15,48,12.10
2010,10,11,15,49,12.10
2010,10,11,15,50,12.10
2010,10,11,15,51,12.10
2010,10,11,15,52,12.20
2010,10,11,15,53,12.20
2010,10,11,15,54,12.20
2010,10,11,15,55,12.20
2010,10,11,15,56,12.20
2010,10,11,15,57,12.20
2010,10,11,15,58,12.20
2010,10,11,15,59,12.20
2010,10,11,16,00,12.20
2010,10,11,16,01,12.20
2010,10,11,16,02,12.20
2010,10,11,16,03,12.20
2010,10,11,16,04,12.20
2010,10,11,16,05,12.20
2010,10,11,16,06,12.20
2010,10,11,16,07,12.20
2010,10,11,16,08,12.20
2010,10,11,16,09,12.20
2010,10,11,16,10,12.20
2010,10,11,16,11,12.20
2010,10,11,16,12,12.20
2010,10,11,16,13,12.20
2010,10,11,16,14,12.20
2010,10,11,16,15,12.20
2010,10,11,16,16,12.30
2010,10,11,16,17,12.30
2010,10,11,16,18,12.30
2010,10,11,16,19,12.30
2010,10,11,16,20,12.30
2010,10,11,16,21,12.30
2010,10,11,16,22,12.30
2010,10,11,16,23,12.30
2010,10,11,16,24,12.30
2010,10,11,16,25,12.30
2010,10,11,16,26,12.40
2010,10,11,16,27,12.40
2010,10,11,16,28,12.40
2010,10,11,16,29,12.40
2010,10,11,16,30,12.40
2010,10,11,16,31,12.40
2010,10,11,16,32,12.40
2010,10,11,16,33,12.40
2010,10,11,16,34,12.40
2010,10,11,16,35,12.40
2010,10,11,16,36,12.40
2010,10,11,16,37,12.40
2010,10,11,16,38,12.40
2010,10,11,16,39,12.40
2010,10,11,16,40,12.50
2010,10,11,16,41,12.50
2010,10,11,16,42,12.50
2010,10,11,16,43,12.50
2010,10,11,16,44,12.60
2010,10,11,16,45,12.60
2010,10,11,16,46,12.60
2010,10,11,16,47,12.60
2010,10,11,16,48,12.60
2010,10,11,16,49,12.60
2010,10,11,16,50,12.60
2010,10,11,16,51,12.60
2010,10,11,16,52,12.60
2010,10,11,16,53,12.60
2010,10,11,16,54,12.60
2010,10,11,16,55,12.60
2010,10,11,16,56,12.60
2010,10,11,16,57,12.60
2010,10,11,16,58,12.60
2010,10,11,16,59,12.60
2010,10,11,17,00,12.60
2010,10,11,17,01,12.60
2010,10,11,17,02,12.60
2010,10,11,17,03,12.60
2010,10,11,17,04,12.60
2010,10,11,17,05,12.60
2010,10,11,17,06,12.60
2010,10,11,17,07,12.60
2010,10,11,17,08,12.60
2010,10,11,17,09,12.60
2010,10,11,17,10,12.60
2010,10,11,17,11,12.60
2010,10,11,17,12,12.60
2010,10,11,17,13,12.60
2010,10,11,17,14,12.60
2010,10,11,17,15,12.70
2010,10,11,17,16,12.70
2010,10,11,17,17,12.70
2010,10,11,17,18,12.70
2010,10,11,17,19,12.70
2010,10,11,17,20,12.70
2010,10,11,17,21,12.70
2010,10,11,17,22,12.70
2010,10,11,17,23,12.70
2010,10,11,17,24,12.70
2010,10,11,17,25,12.70
2010,10,11,17,26,12.70
2010,10,11,17,27,12.70
2010,10,11,17,28,12.70
2010,10,11,17,29,12.70
2010,10,11,17,30,12.60
2010,10,11,17,31,12.60
2010,10,11,17,32,12.60
2010,10,11,17,33,12.60
2010,10,11,17,34,12.60
2010,10,11,17,35,12.60
2010,10,11,17,36,12.60
2010,10,11,17,37,12.60
2010,10,11,17,38,12.50
2010,10,11,17,39,12.50
2010,10,11,17,40,12.50
2010,10,11,17,41,12.50
2010,10,11,17,42,12.50
2010,10,11,17,43,12.50
2010,10,11,17,44,12.50
2010,10,11,17,45,12.50